Regional Weather Roundup
Issued by NWS

Home | Current Version | Previous Version | Text Only | Print | Product List | Glossary On
Versions: 1 2 3 4 5 6 7 8 9 10 11 12 13 14 15 16 17 18 19 20 21 22 23 24 25 26 27 28 29 30 31 32 33 34 35 36 37 38 39 40 41 42 43 44 45 46 47 48 49 50
000
ASUS44 KFWD 290703
RWRTX
NORTH TEXAS HOURLY WEATHER ROUNDUP
NATIONAL WEATHER SERVICE FORT WORTH TX
100 AM CST THU JAN 29 2015

NOTE: "FAIR" INDICATES FEW OR NO CLOUDS BELOW 12,000 FEET WITH NO
SIGNIFICANT WEATHER AND/OR OBSTRUCTIONS TO VISIBILITY.

TXZ118-119-290800-
DALLAS/FORT WORTH METROPLEX

CITY           SKY/WX    TMP DP  RH WIND       PRES   REMARKS
DFW AIRPORT    PTCLDY    61  40  45 S12       30.03F
DALLAS LOVE    MOCLDY    65  41  41 SW12      30.04S
FTW MEACHAM    CLEAR     64  40  41 SW8       30.04F
DAL-EXECUTIVE  MOCLDY    69  39  33 S10G22    30.04S
FTW-ALLIANCE   PTCLDY    60  39  45 W8        30.08R
FTW-SPINKS     MOCLDY    62  40  44 S9        30.07S
ARLINGTON      CLOUDY    66  38  35 S10       30.05S
GRAND PRAIRIE  PTCLDY    63  43  48 S8        30.07S
ADDISON        PTCLDY    66  40  38 SW8       30.07S
MESQUITE       PTCLDY    58  42  54 S9        30.07S
LANCASTER      CLEAR     60  41  48 S7        30.07S
$$

TXZ091>094-102>105-117-120-121-131>134-290800-
NORTH CENTRAL TEXAS

CITY           SKY/WX    TMP DP  RH WIND       PRES   REMARKS
SHRMAN/DENISON CLEAR     56  46  67 S9        30.04F
GAINESVILLE    CLEAR     58  41  52 W6        30.06S
BRIDGEPORT     PTCLDY    62  43  48 SW7       30.07F
DECATUR        CLEAR     63  38  40 SW7       30.06F
DENTON         CLEAR     56  40  55 CALM      30.06R
MCKINNEY       CLEAR     57  41  55 S5        30.05R
GREENVILLE     CLEAR     63  41  45 S12G18    30.06S
ROCKWALL       MOCLDY    60  43  54 S13       30.05S
TERRELL        MOCLDY    60  44  55 S7        30.08S
WAXAHACHIE     PTCLDY    64  43  46 S14       30.08S
CLEBURNE       CLEAR     57  41  54 S7        30.09S
GRANBURY       CLEAR     65  40  40 SE5       30.07S
$$

TXZ083>090-098>101-113>116-127>130-139>142-154-155-290800-
WESTERN NORTH TEXAS

CITY           SKY/WX    TMP DP  RH WIND       PRES   REMARKS
WICHITA FALLS  CLEAR     54  37  52 NW9       30.05R
WF-KICKAPOO    CLEAR     52  29  41 NW3       30.06S
VERNON         CLEAR     51  31  47 NW3       30.09R
ABILENE        PTCLDY    61  41  47 NW5       30.10R
ABILENE-DYESS  PTCLDY    60  43  53 NW8       30.09R
BRECKENRIDGE   PTCLDY    61  43  51 NW3       30.09R
MINERAL WELLS  CLEAR     58  39  49 CALM      30.07R
STEPHENVILLE   PTCLDY    57  39  51 CALM      30.12R
COMANCHE       PTCLDY    64  39  39 SW16G23   30.09R
BROWNWOOD      PTCLDY    54  39  58 N3        30.11S
COLEMAN        PTCLDY    59  43  54 CALM      30.10F
BRADY          CLEAR     57  37  47 S7        30.11F
$$

TXZ143>147-156>162-174-175-290800-
CENTRAL TEXAS

CITY           SKY/WX    TMP DP  RH WIND       PRES   REMARKS
WACO           CLEAR     58  43  57 S9        30.09S
WACO-MCGREGOR  CLEAR     59  39  47 S12       30.10S
HILLSBORO      CLEAR     55  42  62 S6        30.10R
CORSICANA      CLEAR     61  45  55 S8        30.10R
MEXIA          CLEAR     59  46  63 S10       30.09F
HEARNE         CLEAR     56  53  89 SE7       30.14S
CAMERON        CLEAR     59  54  81 S13       30.11S
TEMPLE         CLEAR     54  39  58 S10       30.10S
KILLEEN        PTCLDY    60  44  55 S12       30.10S
KILLEEN-SKYLRK PTCLDY    57  43  58 S8        30.09R
FORT HOOD      PTCLDY    60  44  55 S9        30.10R
GATESVILLE     CLEAR     63  43  48 CALM      30.12R
HAMILTON       CLEAR     62  39  43 SW17      30.10R
LAMPASAS       PTCLDY    58  43  57 S5        30.10S
$$

TXZ095>097-106>112-122>126-135>138-148>153-164>167-290800-
EAST TEXAS

CITY           SKY/WX    TMP DP  RH WIND       PRES   REMARKS
PARIS          CLEAR     61  41  48 SW9       30.04S
SULPHUR SPRNGS CLEAR     64  43  45 SW16      30.07S
MOUNT PLEASANT CLEAR     60  45  58 S8        30.08F
GILMER         CLEAR     59  47  66 S8        30.09S
MINEOLA        CLEAR     64  39  39 S8        30.09S
TYLER          CLEAR     60  46  59 S13       30.10R
LONGVIEW       CLEAR     59  48  67 S15       30.09S
MARSHALL       CLEAR     58  48  67 S8        30.12S
ATHENS         CLEAR     57  43  58 S5        30.10R
PALESTINE      CLEAR     59  48  65 S8        30.13R
JACKSONVILLE   CLEAR     58  48  69 CALM      30.13S
HENDERSON      CLEAR     57  48  72 S7        30.12S
NACOGDOCHES    CLEAR     54  48  82 S6        30.15S
LUFKIN         CLEAR     56  52  86 S3        30.15S
$$

SUPPLEMENTAL OBSERVATIONS (CENTRAL)

CITY           SKY/WX    TMP DP  RH WIND       PRES   REMARKS
$$

SUPPLEMENTAL OBSERVATIONS (WEST)

CITY           SKY/WX    TMP DP  RH WIND       PRES   REMARKS
$$

SUPPLEMENTAL OBSERVATIONS (EAST)

CITY           SKY/WX    TMP DP  RH WIND       PRES   REMARKS
$$

SUPPLEMENTAL OBSERVATIONS ARE A COLLECTION OF AUTOMATED INSTRUMENTS
THAT ARE MAINTAINED BY A VARIETY OF FEDERAL AND STATE AGENCIES.
CERTAIN ELEMENTS...SUCH AS HUMIDITY VALUES AND SUSTAINED WIND
SPEEDS...MAY BE APPROXIMATED.




USA.gov is the U.S. government's official web portal to all federal, state and local government web resources and services.